Regional Weather Roundup
Issued by NWS

Home | Current Version | Previous Version | Text Only | Print | Product List | Glossary Off
Versions: 1 2 3 4 5 6 7 8 9 10 11 12 13 14 15 16 17 18 19 20 21 22 23 24 25 26 27

000
ASUS45 KBOU 020007
RWRCO

WEATHER ROUNDUP FOR COLORADO
NATIONAL WEATHER SERVICE DENVER/BOULDER CO
500 PM MST THU DEC 01 2016

NOTE: "FAIR" INDICATES FEW OR NO CLOUDS BELOW 12000 FEET WITH NO
SIGNIFICANT WEATHER AND/OR OBSTRUCTIONS TO VISIBILITY.

COZ001>005-013-030-031-020100-
...NORTHWEST COLORADO...

CITY           SKY/WX    TMP DP  RH WIND       PRES   REMARKS
CRAIG          LGT SNOW  27  22  81 CALM      29.99R
HAYDEN         FAIR      23  18  80 CALM      29.97S
MEEKER         FLURRIES  24  21  88 N3        29.98R
MOUNT WERNER   NOT AVBL
STEAMBOAT SPGS CLOUDY    22  18  84 CALM      29.96R
WALDEN           N/A     21  10  63 S3        29.92R
$$

COZ006>008-011-020100-
...WEST CENTRAL VALLEYS...

CITY           SKY/WX    TMP DP  RH WIND       PRES   REMARKS
GRAND JUNCTION CLOUDY    35  18  49 CALM      29.99S
MONTROSE       CLOUDY    32  15  49 N7        29.99R WCI  26
EAGLE          CLOUDY    30  18  59 SW12      29.97R WCI  21
RIFLE          CLOUDY    32  20  61 S3        29.99S
DELTA          NOT AVBL
NUCLA          CLOUDY    34  12  40 N3        29.98S
$$

COZ017>023-064>068-020100-
...SOUTHWEST COLORADO...

CITY           SKY/WX    TMP DP  RH WIND       PRES   REMARKS
DURANGO        FAIR      30  14  51 SE5       29.94R WCI  25
CORTEZ         FAIR      29  19  66 S7        29.95S WCI  22
PAGOSA SPRINGS FAIR      23  13  66 CALM      29.93S
TELLURIDE      CLOUDY    23  12  61 W6        29.93S WCI  16
WOLF CREEK PAS FOG       10  10 100 SW9       29.93S VSB 3/4 WCI  -2
$$

COZ009-010-012-014-032>034-037-058>063-020100-
...CENTRAL COLORADO...

CITY           SKY/WX    TMP DP  RH WIND       PRES   REMARKS
ASPEN          CLOUDY    23  14  68 NW3       29.93R
BUENA VISTA    MOCLDY    29   7  39 SE9       29.88R WCI  20
COPPER MTN     MOCLDY    14   9  79 MISG      29.86S
BERTHOUD PASS  CLOUDY     7  -6  56 NW6G17    29.84S WCI  -3
COTTONWOOD PAS FAIR      27   9  46 W8        29.88R WCI  18
GUNNISON       MOCLDY    24  12  60 CALM      29.93S
KREMMLING      CLOUDY    28  19  69 CALM      29.95R
LEADVILLE      FAIR      17   8  67 N5        29.85S WCI  10
MONARCH PASS     N/A     10   9  92 W18       29.97S WCI  -8
SALIDA         FAIR      32   8  36 SW13      29.95R WCI  22
SUNLIGHT       LGT SNOW N/A N/A N/A SW8       29.93S VSB 3/4
WILKERSON PASS CLOUDY    19   3  49 CALM      29.89R
$$

COZ069>075-020100-
...SAN LUIS VALLEY/SANGRE DE CRISTO MOUNTAINS...

CITY           SKY/WX    TMP DP  RH WIND       PRES   REMARKS
ALAMOSA        FAIR      27   9  46 CALM      29.92R
LA VETA PASS   MOCLDY    18   9  68 NE15G22   29.89S WCI   3
SAGUACHE       FAIR      21   9  58 E6        29.94R WCI  14
$$

COZ035-036-038>040-020100-
...NORTHERN COLORADO FRONT RANGE...

CITY           SKY/WX    TMP DP  RH WIND       PRES   REMARKS
DENVER INTL AP FAIR      30   5  34 E8        29.91R WCI  22
DMNS CITY PARK   N/A     35   5  28 E3G15     29.92R
AURORA         PTCLDY    31   6  34 E7        29.92R WCI  24
FRONT RANGE AP PTCLDY    32   7  34 E10       29.92  WCI  24
ERIE MUNI ARPT FAIR      31   6  34 N5        29.93R WCI  26
BOULDER MUN AP CLOUDY    34   9  35 CALM      29.93R
CENTENNIAL     FAIR      33   6  32 E8        29.90R WCI  26
BROOMFIELD     PTCLDY    34   7  32 NW9       29.92R WCI  26
FORT COLLINS   FAIR      30   5  34 E6        29.95R WCI  24
LONGMONT       FAIR      36   8  31 N3        29.96R
$$

COZ041-046-047-076>085-087-088-020100-
...PIKES PEAK/PALMER DIVIDE AND SOUTHERN FOOTHILLS...

CITY           SKY/WX    TMP DP  RH WIND       PRES   REMARKS
COLO. SPRINGS  FAIR      30   2  30 SE8       29.93R WCI  22
A. F. ACADEMY  FAIR      28   3  34 S6        29.90R WCI  21
SCHRIEVER AFB  NOT AVBL
ELLICOTT       FAIR     N/A N/A N/A SE9       29.92R
FALCON         FAIR      25   2  36 S8        29.92R WCI  16
FORT CARSON    FAIR      31   5  32 S6        29.92R WCI  26
LIMON          FAIR      26   5  40 SE6       29.93R WCI  19
MONUMENT HILL  FAIR      25   5  42 S9        29.91R WCI  15
TRINIDAD       FAIR      35   7  31 NE8       29.90R WCI  29
$$

COZ042>045-048>051-090-091-020100-
...NORTHEAST COLORADO...

CITY           SKY/WX    TMP DP  RH WIND       PRES   REMARKS
GREELEY ARPT   FAIR      34   7  32 E3        29.95R
AKRON          FAIR      34  10  37 CALM      29.94R
BURLINGTON     MOCLDY    33   7  33 SW7       29.96R WCI  27
WRAY           NOT AVBL
STERLING       FAIR      34  16  47 N6        29.94R WCI  29
HOLYOKE        FAIR      34  14  44 N6        29.96R WCI  29
FORT MORGAN    FAIR      35   6  30 W3        29.96R
$$

COZ086-089-092>099-020100-
...SOUTHEAST COLORADO...

CITY           SKY/WX    TMP DP  RH WIND       PRES   REMARKS
PUEBLO         FAIR      34   9  35 CALM      29.93R
LA JUNTA       FAIR      34  13  41 NE8       29.94R WCI  27
LAMAR          MIX PCPN  34  13  41 NE6       29.94R WCI  29
SPRINGFIELD      N/A     30   7  37 SE9       29.95R WCI  22
$$




USA.gov is the U.S. government's official web portal to all federal, state and local government web resources and services.